When you browse on this site, cookies collect data to enhance your experience and personalize the content and advertising you see.
Visit our Privacy Policy to learn more. By continuing to use the site, you agree to this use of cookies and data.

Previsão horária em Sevan

Hoje, 15 Agosto, Sábado

Tempo Temperatura Precipitação Vento Pressão Humidade
00:00 +17°C° 0.2 mm 3 m/s 639 mmHg 75%
01:00 +16°C° 0 mm 3 m/s 639 mmHg 75%
02:00 +16°C° 0 mm 3 m/s 639 mmHg 76%
03:00 +16°C° 0 mm 3 m/s 638 mmHg 74%
04:00 +16°C° 0 mm 3 m/s 639 mmHg 75%
05:00 +16°C° 0 mm 2 m/s 639 mmHg 77%
06:00 +16°C° 0 mm 2 m/s 639 mmHg 78%
07:00 +17°C° 0 mm 2 m/s 639 mmHg 72%
08:00 +19°C° 0 mm 2 m/s 640 mmHg 67%
09:00 +21°C° 0 mm 2 m/s 640 mmHg 59%
10:00 +21°C° 0.1 mm 2 m/s 640 mmHg 57%
11:00 +23°C° 0.1 mm 2 m/s 640 mmHg 55%
12:00 +24°C° 0.1 mm 2 m/s 641 mmHg 53%
13:00 +24°C° 0.1 mm 2 m/s 640 mmHg 53%
14:00 +25°C° 0.1 mm 3 m/s 640 mmHg 52%
15:00 +25°C° 0.1 mm 3 m/s 640 mmHg 51%
16:00 +23°C° 0 mm 4 m/s 640 mmHg 54%
17:00 +22°C° 0 mm 4 m/s 640 mmHg 57%
18:00 +21°C° 0 mm 5 m/s 639 mmHg 60%
19:00 +20°C° 0 mm 5 m/s 640 mmHg 62%
20:00 +19°C° 0 mm 5 m/s 640 mmHg 63%
21:00 +17°C° 0 mm 4 m/s 640 mmHg 64%
22:00 +17°C° 0 mm 4 m/s 640 mmHg 63%
23:00 +17°C° 0 mm 4 m/s 640 mmHg 61%

Amanhã, 16 Agosto, Domingo

Tempo Temperatura Precipitação Vento Pressão Humidade
00:00 +16°C° 0 mm 3 m/s 640 mmHg 60%
01:00 +16°C° 0 mm 3 m/s 640 mmHg 61%
02:00 +14°C° 0 mm 3 m/s 639 mmHg 63%
03:00 +14°C° 0 mm 3 m/s 639 mmHg 65%
04:00 +14°C° 0 mm 3 m/s 639 mmHg 67%
05:00 +15°C° 0 mm 2 m/s 639 mmHg 69%
06:00 +15°C° 0 mm 2 m/s 640 mmHg 72%
07:00 +17°C° 0 mm 2 m/s 640 mmHg 67%
08:00 +18°C° 0 mm 2 m/s 640 mmHg 63%
09:00 +20°C° 0 mm 2 m/s 640 mmHg 58%
10:00 +21°C° 0 mm 2 m/s 641 mmHg 56%
11:00 +23°C° 0 mm 2 m/s 641 mmHg 54%
12:00 +24°C° 0 mm 2 m/s 641 mmHg 52%
13:00 +24°C° 0.1 mm 2 m/s 641 mmHg 52%
14:00 +25°C° 0.1 mm 2 m/s 640 mmHg 52%
15:00 +25°C° 0.1 mm 3 m/s 640 mmHg 51%
16:00 +24°C° 0.2 mm 3 m/s 640 mmHg 56%
17:00 +22°C° 0.2 mm 3 m/s 640 mmHg 61%
18:00 +21°C° 0.2 mm 4 m/s 639 mmHg 65%
19:00 +19°C° 0.7 mm 4 m/s 639 mmHg 70%
20:00 +18°C° 0.7 mm 3 m/s 639 mmHg 75%
21:00 +17°C° 0.7 mm 3 m/s 639 mmHg 80%
22:00 +17°C° 0.8 mm 3 m/s 639 mmHg 80%
23:00 +17°C° 0.8 mm 3 m/s 639 mmHg 80%

Depois de amanhã, 17 Agosto, Segunda-feira

Tempo Temperatura Precipitação Vento Pressão Humidade
00:00 +17°C° 0.8 mm 3 m/s 639 mmHg 81%
01:00 +16°C° 0.7 mm 3 m/s 639 mmHg 82%
02:00 +16°C° 0.7 mm 2 m/s 639 mmHg 84%
03:00 +16°C° 0.7 mm 2 m/s 639 mmHg 86%
04:00 +16°C° 0.3 mm 1 m/s 639 mmHg 85%
05:00 +16°C° 0.3 mm 1 m/s 639 mmHg 84%
06:00 +16°C° 0.3 mm 1 m/s 639 mmHg 84%
07:00 +18°C° 0.2 mm 1 m/s 640 mmHg 80%
08:00 +19°C° 0.2 mm 1 m/s 640 mmHg 76%
09:00 +20°C° 0.2 mm 1 m/s 641 mmHg 72%
10:00 +21°C° 0.2 mm 1 m/s 641 mmHg 69%
11:00 +22°C° 0.2 mm 1 m/s 641 mmHg 66%
12:00 +23°C° 0.2 mm 2 m/s 641 mmHg 63%
13:00 +23°C° 0.1 mm 2 m/s 641 mmHg 61%
14:00 +22°C° 0.1 mm 3 m/s 641 mmHg 60%
15:00 +24°C° 0.1 mm 3 m/s 641 mmHg 58%
16:00 +22°C° 0.1 mm 3 m/s 641 mmHg 61%
17:00 +21°C° 0.1 mm 4 m/s 641 mmHg 64%
18:00 +20°C° 0.1 mm 4 m/s 641 mmHg 66%
19:00 +19°C° 0.1 mm 4 m/s 641 mmHg 69%
20:00 +18°C° 0.1 mm 4 m/s 641 mmHg 73%
21:00 +15°C° 0.1 mm 4 m/s 641 mmHg 76%
22:00 +15°C° 0 mm 4 m/s 641 mmHg 76%
23:00 +16°C° 0 mm 3 m/s 641 mmHg 77%

18 Agosto, Terça-feira

Tempo Temperatura Precipitação Vento Pressão Humidade
00:00 +16°C° 0 mm 3 m/s 641 mmHg 77%
01:00 +14°C° 0 mm 3 m/s 641 mmHg 78%
02:00 +15°C° 0 mm 2 m/s 641 mmHg 78%
03:00 +15°C° 0 mm 2 m/s 641 mmHg 79%
04:00 +15°C° 0 mm 2 m/s 641 mmHg 79%
05:00 +15°C° 0 mm 2 m/s 641 mmHg 79%
06:00 +15°C° 0 mm 1 m/s 641 mmHg 79%
07:00 +17°C° 0 mm 2 m/s 641 mmHg 74%
08:00 +18°C° 0 mm 2 m/s 641 mmHg 69%
09:00 +20°C° 0 mm 2 m/s 642 mmHg 64%
10:00 +21°C° 0 mm 2 m/s 642 mmHg 61%
11:00 +23°C° 0 mm 2 m/s 642 mmHg 57%
12:00 +24°C° 0 mm 2 m/s 642 mmHg 54%
13:00 +25°C° 0 mm 2 m/s 642 mmHg 53%
14:00 +25°C° 0 mm 2 m/s 641 mmHg 53%
15:00 +26°C° 0 mm 3 m/s 641 mmHg 52%
16:00 +25°C° 0.1 mm 3 m/s 641 mmHg 56%
17:00 +24°C° 0.1 mm 3 m/s 640 mmHg 60%
18:00 +22°C° 0.1 mm 3 m/s 640 mmHg 64%
19:00 +20°C° 0 mm 4 m/s 640 mmHg 67%
20:00 +19°C° 0 mm 4 m/s 640 mmHg 70%
21:00 +18°C° 0 mm 4 m/s 640 mmHg 73%
22:00 +17°C° 0 mm 4 m/s 640 mmHg 74%
23:00 +17°C° 0 mm 4 m/s 640 mmHg 74%

19 Agosto, Quarta-feira

Tempo Temperatura Precipitação Vento Pressão Humidade
00:00 +17°C° 0 mm 3 m/s 640 mmHg 74%
01:00 +17°C° 0 mm 3 m/s 640 mmHg 75%
02:00 +16°C° 0 mm 3 m/s 639 mmHg 76%
03:00 +16°C° 0 mm 3 m/s 639 mmHg 78%
04:00 +16°C° 0.1 mm 2 m/s 639 mmHg 78%
05:00 +16°C° 0.1 mm 2 m/s 639 mmHg 79%
06:00 +16°C° 0.1 mm 2 m/s 639 mmHg 79%
07:00 +17°C° 0.2 mm 2 m/s 639 mmHg 74%
08:00 +19°C° 0.2 mm 2 m/s 640 mmHg 68%
09:00 +21°C° 0.2 mm 2 m/s 640 mmHg 62%
10:00 +23°C° 0.2 mm 2 m/s 640 mmHg 58%
11:00 +24°C° 0.2 mm 2 m/s 640 mmHg 54%
12:00 +26°C° 0.2 mm 2 m/s 641 mmHg 50%
13:00 +26°C° 0.3 mm 2 m/s 640 mmHg 49%
14:00 +26°C° 0.3 mm 2 m/s 640 mmHg 48%
15:00 +27°C° 0.3 mm 2 m/s 640 mmHg 47%
16:00 +26°C° 0.1 mm 3 m/s 640 mmHg 52%
17:00 +24°C° 0.1 mm 3 m/s 640 mmHg 57%
18:00 +22°C° 0.1 mm 4 m/s 639 mmHg 62%
19:00 +21°C° 0.1 mm 4 m/s 639 mmHg 65%
20:00 +19°C° 0.1 mm 4 m/s 640 mmHg 68%
21:00 +18°C° 0.1 mm 4 m/s 640 mmHg 71%
22:00 +18°C° 0.1 mm 4 m/s 640 mmHg 72%
23:00 +17°C° 0.1 mm 4 m/s 640 mmHg 73%

20 Agosto, Quinta-feira

Tempo Temperatura Precipitação Vento Pressão Humidade
00:00 +17°C° 0.1 mm 3 m/s 640 mmHg 74%
01:00 +17°C° 0 mm 3 m/s 640 mmHg 74%
02:00 +17°C° 0 mm 3 m/s 640 mmHg 74%
03:00 +16°C° 0 mm 3 m/s 640 mmHg 75%
04:00 +16°C° 0 mm 2 m/s 640 mmHg 75%
05:00 +16°C° 0 mm 2 m/s 640 mmHg 75%
06:00 +16°C° 0 mm 2 m/s 640 mmHg 75%
07:00 +18°C° 0 mm 2 m/s 640 mmHg 69%
08:00 +20°C° 0 mm 2 m/s 641 mmHg 63%
09:00 +23°C° 0 mm 1 m/s 641 mmHg 57%
10:00 +24°C° 0 mm 2 m/s 642 mmHg 53%
11:00 +25°C° 0 mm 2 m/s 642 mmHg 50%
12:00 +27°C° 0 mm 2 m/s 642 mmHg 46%
13:00 +27°C° 0 mm 2 m/s 642 mmHg 43%
14:00 +28°C° 0 mm 2 m/s 641 mmHg 40%
15:00 +29°C° 0 mm 2 m/s 641 mmHg 38%
16:00 +28°C° 0 mm 2 m/s 641 mmHg 43%
17:00 +27°C° 0 mm 2 m/s 641 mmHg 48%
18:00 +26°C° 0 mm 2 m/s 640 mmHg 53%
19:00 +25°C° 0 mm 2 m/s 640 mmHg 58%
20:00 +22°C° 0 mm 3 m/s 640 mmHg 62%
21:00 +20°C° 0 mm 3 m/s 640 mmHg 67%
22:00 +20°C° 0 mm 3 m/s 640 mmHg 67%
23:00 +19°C° 0 mm 3 m/s 640 mmHg 67%
Mostrar mais